325  
ASUS43 KGRB 210711  
RWRGRB  
 
NORTH-CENTRAL AND NORTHEAST WISCONSIN REGIONAL WEATHER ROUNDUP  
NATIONAL WEATHER SERVICE GREEN BAY WI  
200 AM CDT SAT SEP 21 2019  
 
WIZ005-009-010>012-018-019-210800-  
NORTH CENTRAL WISCONSIN  
 
CITY SKY/WX TMP DP RH WIND PRES REMARKS
 
IRONWOOD MOCLDY 70 67 90 S13G21 30.00S  
MANITOWISH WTR CLOUDY 68 68 100 S7 30.04F  
ARBOR VITAE CLOUDY 69 66 88 S6 30.05S  
EAGLE RIVER CLOUDY 67 66 99 S7 30.06F  
LAND O LAKES CLOUDY 67 65 93 S7 30.08S  
RHINELANDER CLOUDY 68 66 93 S6 30.07F  
PHILLIPS FAIR 68 68 100 S6 30.02F  
ANTIGO CLOUDY 65 65 100 S7 30.08F FOG  
TOMAHAWK CLOUDY 66 65 96 CALM 30.06S FOG  
MERRILL CLOUDY 67 67 100 SE5 30.06F FOG  

 
 
WIZ013-073-210800-  
NORTHEAST WISCONSIN  
 
CITY SKY/WX TMP DP RH WIND PRES REMARKS
 
IRON MOUNTAIN CLOUDY 64 62 93 SE3 30.07F FOG  
MARINETTE CLOUDY 64 63 96 CALM 30.08F  
OCONTO N/A 62 62 99 CALM 30.07S  

 
 
WIZ017-030-035>037-045-210800-  
CENTRAL WISCONSIN  
 
CITY SKY/WX TMP DP RH WIND PRES REMARKS
 
MEDFORD FAIR 67 66 97 SE6 30.03F FOG  
WAUSAU FAIR 66 66 100 E5 30.04F FOG  
MOSINEE FAIR N/A N/A N/A SE6 30.06F HAZE  
MARSHFIELD FAIR 69 67 93 SE6 30.03F FOG  
WISC RAPIDS FAIR 70 68 93 SE5 30.03F FOG  
STEVENS POINT FAIR 66 66 100 SE3 30.05F FOG  
WAUPACA FAIR 67 67 97 CALM 30.06S FOG  
SHAWANO FAIR 66 64 93 CALM 30.07S FOG  
CLINTONVILLE FAIR 64 62 93 CALM 30.06S FOG  
WAUTOMA FAIR 66 65 96 CALM 30.05F FOG  

 
 
WIZ038-039-048-051-210800-  
FOX VALLEY  
 
CITY SKY/WX TMP DP RH WIND PRES REMARKS
 
NWS GREEN BAY FAIR 64 62 93 CALM 30.07S FOG  
APPLETON FAIR 64 64 100 SE5 30.05F FOG  
OSHKOSH FAIR 65 63 93 S5 30.05F FOG  
FOND DU LAC FAIR 68 65 90 S5 30.06F FOG  

 
 
WIZ022-050-052-210800-  
EAST CENTRAL WISCONSIN  
 
CITY SKY/WX TMP DP RH WIND PRES REMARKS
 
EPHRAIM NOT AVBL  
WASHINGTON ISL FAIR 60 60 100 CALM 30.08S  
STURGEON BAY FAIR 63 61 93 SE6 30.08F  
MANITOWOC FOG 66 66 100 S6 30.09F VSB 1/4  
SHEBOYGAN FOG 64 63 96 CALM 30.08F VSB 1/4  

 
 
LMZ563-521-522-541>543-210800-  
LAKESHORE  
 
STATION/POSITION TIME TEMP WIND PRES VSBY WAVE
 
AIR SEA DIR/SP/G HT/PER  
(UTC) (F) (DEG/KT/KT) (MB) (MI) (FT/S)  
SHEBOYGAN LKSHOR 0700 64 160/ 7/ 7 1018.5F  
KEWAUNEE LKSHORE 0630 62 CALM / 2 1017.9F  
NORTHPORT PIER 0640 64 140/ 4/ 7 1018.3F  
N MID LAKE BUOY 0650 64 64 160/ 4/ 6 1019.2F 0  
SISTER BAY LKSHO 0656 63 130/ 3/ 7 N/A  
CHAMBERS ISLAND 0640 63 CALM / 2 N/A  
MENOMINEE LKSHOR 0630 64 65 150/ 5/ 7 1018.1F  

 
 
 
CLICK HERE TO GO TO PREVIOUS BULLETINS.

The Nexlab WI Page Main Text Page